Regional Weather Roundup
Issued by NWS

Home | Current Version | Previous Version | Text Only | Print | Product List | Glossary Off
Versions: 1 2 3 4 5 6 7 8 9 10 11 12 13 14 15 16 17 18 19 20 21 22 23 24 25 26 27 28 29 30 31 32 33 34 35 36 37 38 39 40 41 42 43 44 45 46 47 48 49 50

000
ASUS43 KFSD 271602
RWRSD

WEATHER ROUNDUP FOR SOUTH DAKOTA
NATIONAL WEATHER SERVICE SIOUX FALLS SD
1100 AM CDT SUN MAY 27 2018

NOTE: "FAIR" INDICATES FEW OR NO CLOUDS BELOW 12,000 FEET WITH NO
SIGNIFICANT WEATHER AND/OR OBSTRUCTIONS TO VISIBILITY.


SDZ001>005-009-010-012>017-271700-
NORTHWEST AND NORTH CENTRAL SOUTH DAKOTA

CITY           SKY/WX    TMP DP  RH WIND       PRES   REMARKS
BUFFALO          N/A     71  55  56 N14       29.84F
FAITH            N/A     75  61  61 NE13      29.81R
MOBRIDGE       PTSUNNY   84  62  47 E23G30    29.70F
$$

SDZ012>016-024>037-041>051-057-063-072>074-271700-
SOUTHWEST AND SOUTH CENTRAL SOUTH DAKOTA

CITY           SKY/WX    TMP DP  RH WIND       PRES   REMARKS
RAPID CTY ARPT MOSUNNY   73  56  54 N22G32    29.86F
PIERRE         MOSUNNY   83  60  45 SW12      29.71F
CUSTER         SUNNY     69  48  47 N17G28    29.98R
ELLSWORTH AFB  SUNNY     74  56  53 N22       29.87S
PHILIP         PTSUNNY   76  65  68 CALM      29.75S
PINE RIDGE     MOSUNNY   77  62  59 N7        29.84S
SPEARFISH      FAIR      72  55  56 VRB5      29.95S
WINNER         FAIR      83  64  52 S13       29.78F
$$

SDZ004>011-016>023-039-040-271700-
NORTHEAST SOUTH DAKOTA

CITY           SKY/WX    TMP DP  RH WIND       PRES   REMARKS
ABERDEEN       PTSUNNY   85  59  41 E24G39    29.75F
WATERTOWN      CLOUDY    78  58  49 E9        29.84F
BROOKINGS      PTSUNNY   88  61  40 N9        29.85R
SISSETON         N/A     71  63  75 NE13      29.85S
$$

SDZ017-020-022-023-036>040-048>070-271700-
SOUTHEAST SOUTH DAKOTA

CITY           SKY/WX    TMP DP  RH WIND       PRES   REMARKS
SIOUX FALLS    PTSUNNY   87  60  40 S7        29.82F
HURON          MOSUNNY   85  61  44 CALM      29.78R
CHAMBERLAIN    SUNNY     84  67  56 S16G22    29.76F
MITCHELL       MOSUNNY   88  65  46 S12       29.79R
YANKTON        SUNNY     89  61  38 SW7       29.81F
$$

ABBREVIATIONS USED IN REMARKS
   TC - TEMPERATURE IN CELSIUS
  WCI - WIND CHILL INDEX
   HX - HEAT INDEX
  VSB - VISIBILITY





USA.gov is the U.S. government's official web portal to all federal, state and local government web resources and services.